• In Netherlands
  • List of Countries
  • For 7 days
  • Water Temperature
  • Satellite Maps
  • Weather Map
  • Weather Widgets
  • user-avatar
    Login

    Hourly Weather Shaki

    Today, 22 February, Wednesday

    Time Temperature Precipitation Wind Pressure Humidity
    00:00 +2°C° 0 mm 2 mps 733 mmHg 45%
    01:00 +1°C° 0 mm 3 mps 732 mmHg 46%
    02:00 +1°C° 0 mm 3 mps 732 mmHg 46%
    03:00 +1°C° 0 mm 3 mps 732 mmHg 46%
    04:00 +1°C° 0 mm 3 mps 732 mmHg 48%
    05:00 +1°C° 0 mm 3 mps 733 mmHg 50%
    06:00 +1°C° 0 mm 3 mps 733 mmHg 51%
    07:00 +1°C° 0 mm 4 mps 733 mmHg 50%
    08:00 +4°C° 0 mm 4 mps 733 mmHg 49%
    09:00 +6°C° 0 mm 4 mps 733 mmHg 48%
    10:00 +7°C° 0 mm 4 mps 733 mmHg 46%
    11:00 +8°C° 0 mm 5 mps 733 mmHg 45%
    12:00 +10°C° 0 mm 5 mps 733 mmHg 43%
    13:00 +10°C° 0 mm 5 mps 732 mmHg 44%
    14:00 +9°C° 0 mm 5 mps 732 mmHg 45%
    15:00 +9°C° 0 mm 5 mps 732 mmHg 46%
    16:00 +7°C° 0 mm 4 mps 732 mmHg 49%
    17:00 +5°C° 0 mm 3 mps 732 mmHg 51%
    18:00 +3°C° 0 mm 3 mps 733 mmHg 54%
    19:00 +3°C° 0 mm 3 mps 733 mmHg 53%
    20:00 +3°C° 0 mm 3 mps 733 mmHg 53%
    21:00 +3°C° 0 mm 3 mps 733 mmHg 53%
    22:00 +3°C° 0 mm 3 mps 733 mmHg 55%
    23:00 +2°C° 0 mm 3 mps 733 mmHg 56%

    Tomorrow, 23 February, Thursday

    Time Temperature Precipitation Wind Pressure Humidity
    00:00 +2°C° 0 mm 3 mps 732 mmHg 58%
    01:00 +2°C° 0 mm 3 mps 732 mmHg 58%
    02:00 +2°C° 0 mm 3 mps 733 mmHg 58%
    03:00 +2°C° 0 mm 3 mps 733 mmHg 58%
    04:00 +1°C° 0 mm 4 mps 733 mmHg 60%
    05:00 +1°C° 0 mm 4 mps 733 mmHg 62%
    06:00 +2°C° 0 mm 5 mps 734 mmHg 63%
    07:00 +3°C° 0 mm 5 mps 734 mmHg 58%
    08:00 +5°C° 0 mm 5 mps 735 mmHg 53%
    09:00 +5°C° 0 mm 6 mps 735 mmHg 48%
    10:00 +7°C° 0 mm 6 mps 736 mmHg 46%
    11:00 +8°C° 0 mm 6 mps 736 mmHg 44%
    12:00 +9°C° 0 mm 6 mps 736 mmHg 42%
    13:00 +9°C° 0 mm 5 mps 736 mmHg 43%
    14:00 +9°C° 0 mm 5 mps 736 mmHg 44%
    15:00 +9°C° 0 mm 5 mps 736 mmHg 45%
    16:00 +7°C° 0 mm 4 mps 736 mmHg 50%
    17:00 +5°C° 0 mm 3 mps 736 mmHg 55%
    18:00 +4°C° 0 mm 2 mps 736 mmHg 60%
    19:00 +4°C° 0 mm 2 mps 737 mmHg 56%
    20:00 +4°C° 0 mm 2 mps 737 mmHg 52%
    21:00 +3°C° 0 mm 2 mps 737 mmHg 48%
    22:00 +3°C° 0 mm 2 mps 737 mmHg 48%
    23:00 +2°C° 0 mm 3 mps 737 mmHg 49%

    Day after tomorrow, 24 February, Friday

    Time Temperature Precipitation Wind Pressure Humidity
    00:00 +2°C° 0 mm 3 mps 737 mmHg 49%
    01:00 +2°C° 0 mm 3 mps 737 mmHg 49%
    02:00 +2°C° 0 mm 3 mps 737 mmHg 50%
    03:00 +2°C° 0 mm 3 mps 737 mmHg 50%
    04:00 +2°C° 0 mm 3 mps 737 mmHg 50%
    05:00 +2°C° 0 mm 3 mps 737 mmHg 50%
    06:00 +2°C° 0 mm 3 mps 737 mmHg 50%
    07:00 +4°C° 0 mm 3 mps 738 mmHg 48%
    08:00 +5°C° 0 mm 3 mps 738 mmHg 47%
    09:00 +8°C° 0 mm 2 mps 738 mmHg 45%
    10:00 +10°C° 0 mm 3 mps 738 mmHg 43%
    11:00 +11°C° 0 mm 3 mps 738 mmHg 41%
    12:00 +12°C° 0 mm 3 mps 738 mmHg 39%
    13:00 +13°C° 0 mm 3 mps 738 mmHg 40%
    14:00 +13°C° 0 mm 3 mps 738 mmHg 41%
    15:00 +13°C° 0 mm 3 mps 738 mmHg 42%
    16:00 +12°C° 0 mm 2 mps 738 mmHg 46%
    17:00 +9°C° 0 mm 2 mps 738 mmHg 49%
    18:00 +7°C° 0 mm 2 mps 739 mmHg 53%
    19:00 +7°C° 0 mm 2 mps 739 mmHg 52%
    20:00 +6°C° 0 mm 2 mps 739 mmHg 51%
    21:00 +6°C° 0 mm 2 mps 740 mmHg 50%
    22:00 +6°C° 0 mm 2 mps 739 mmHg 53%
    23:00 +6°C° 0 mm 2 mps 739 mmHg 56%

    25 February, Saturday

    Time Temperature Precipitation Wind Pressure Humidity
    00:00 +5°C° 0 mm 2 mps 739 mmHg 59%
    01:00 +5°C° 0 mm 2 mps 739 mmHg 59%
    02:00 +5°C° 0 mm 2 mps 739 mmHg 60%
    03:00 +5°C° 0 mm 2 mps 739 mmHg 61%
    04:00 +5°C° 0 mm 2 mps 739 mmHg 60%
    05:00 +5°C° 0 mm 2 mps 739 mmHg 59%
    06:00 +5°C° 0 mm 2 mps 739 mmHg 58%
    07:00 +7°C° 0 mm 2 mps 739 mmHg 55%
    08:00 +9°C° 0 mm 2 mps 738 mmHg 51%
    09:00 +12°C° 0 mm 2 mps 738 mmHg 47%
    10:00 +12°C° 0 mm 3 mps 738 mmHg 44%
    11:00 +13°C° 0 mm 3 mps 737 mmHg 41%
    12:00 +16°C° 0 mm 3 mps 737 mmHg 39%
    13:00 +16°C° 0 mm 3 mps 736 mmHg 39%
    14:00 +16°C° 0 mm 3 mps 736 mmHg 39%
    15:00 +16°C° 0 mm 3 mps 735 mmHg 39%
    16:00 +13°C° 0 mm 3 mps 735 mmHg 42%
    17:00 +11°C° 0 mm 3 mps 735 mmHg 46%
    18:00 +9°C° 0 mm 2 mps 735 mmHg 49%
    19:00 +8°C° 0 mm 2 mps 735 mmHg 47%
    20:00 +8°C° 0 mm 2 mps 735 mmHg 45%
    21:00 +8°C° 0 mm 2 mps 735 mmHg 44%
    22:00 +7°C° 0 mm 3 mps 735 mmHg 44%
    23:00 +7°C° 0 mm 3 mps 734 mmHg 44%

    26 February, Sunday

    Time Temperature Precipitation Wind Pressure Humidity
    00:00 +7°C° 0 mm 3 mps 734 mmHg 45%
    01:00 +7°C° 0 mm 3 mps 733 mmHg 45%
    02:00 +6°C° 0 mm 4 mps 733 mmHg 45%
    03:00 +6°C° 0 mm 4 mps 733 mmHg 45%
    04:00 +6°C° 0 mm 4 mps 733 mmHg 45%
    05:00 +6°C° 0 mm 4 mps 733 mmHg 46%
    06:00 +6°C° 0 mm 5 mps 733 mmHg 47%
    07:00 +7°C° 0 mm 5 mps 733 mmHg 45%
    08:00 +9°C° 0 mm 5 mps 734 mmHg 44%
    09:00 +12°C° 0 mm 5 mps 734 mmHg 43%
    10:00 +13°C° 0 mm 6 mps 735 mmHg 41%
    11:00 +14°C° 0 mm 7 mps 735 mmHg 40%
    12:00 +15°C° 0 mm 7 mps 735 mmHg 38%
    13:00 +15°C° 0 mm 7 mps 735 mmHg 40%
    14:00 +15°C° 0 mm 7 mps 736 mmHg 41%
    15:00 +14°C° 0 mm 7 mps 736 mmHg 42%
    16:00 +13°C° 0 mm 6 mps 737 mmHg 46%
    17:00 +10°C° 0 mm 5 mps 737 mmHg 49%
    18:00 +9°C° 0 mm 3 mps 738 mmHg 53%
    19:00 +8°C° 0 mm 3 mps 739 mmHg 53%
    20:00 +8°C° 0 mm 3 mps 740 mmHg 54%
    21:00 +7°C° 0 mm 2 mps 741 mmHg 54%
    22:00 +5°C° 0 mm 3 mps 741 mmHg 60%
    23:00 +4°C° 0 mm 3 mps 742 mmHg 65%

    27 February, Monday

    Time Temperature Precipitation Wind Pressure Humidity
    00:00 +3°C° 0 mm 4 mps 742 mmHg 71%
    01:00 +3°C° 0 mm 3 mps 742 mmHg 71%
    02:00 +2°C° 0 mm 3 mps 743 mmHg 72%
    03:00 +2°C° 0 mm 3 mps 743 mmHg 72%
    04:00 +3°C° 0 mm 2 mps 743 mmHg 73%
    05:00 +2°C° 0 mm 2 mps 743 mmHg 73%
    06:00 +2°C° 0 mm 2 mps 743 mmHg 73%
    07:00 +3°C° 0 mm 2 mps 743 mmHg 68%
    08:00 +4°C° 0 mm 2 mps 743 mmHg 63%
    09:00 +5°C° 0 mm 2 mps 743 mmHg 57%
    10:00 +6°C° 0 mm 2 mps 742 mmHg 54%
    11:00 +8°C° 0 mm 2 mps 741 mmHg 52%
    12:00 +9°C° 0 mm 2 mps 740 mmHg 49%
    13:00 +9°C° 0 mm 2 mps 739 mmHg 47%
    14:00 +10°C° 0 mm 2 mps 739 mmHg 46%
    15:00 +10°C° 0 mm 2 mps 738 mmHg 44%
    16:00 +9°C° 0 mm 2 mps 738 mmHg 48%
    17:00 +7°C° 0 mm 2 mps 738 mmHg 53%
    18:00 +6°C° 0 mm 2 mps 738 mmHg 57%
    19:00 +5°C° 0 mm 2 mps 738 mmHg 56%
    20:00 +5°C° 0 mm 2 mps 738 mmHg 55%
    21:00 +5°C° 0 mm 2 mps 738 mmHg 55%
    22:00 +5°C° 0 mm 2 mps 738 mmHg 54%
    23:00 +5°C° 0 mm 2 mps 738 mmHg 54%
    Show more